Hot Springs, VA

10:15 AM EST on December 15, 2017 (GMT -0500)
Ingalls

Weather History for KHSP - August, 2013

Change the Weather History Date:

Saturday, August 31, 2013

  Actual Average Record
Temperature  
Mean Temperature 70 °F -  
Max Temperature 75 °F 71 °F 82 °F (1998)
Min Temperature 64 °F 57 °F 46 °F (1999)
Cooling Degree Days 4    
Growing Degree Days 20 (Base 50)    
Moisture  
Dew Point 65 °F    
Average Humidity 93    
Maximum Humidity 100    
Minimum Humidity 69    
Precipitation  
Precipitation 0.06 in - - ()
Sea Level Pressure  
Sea Level Pressure 30.09 in    
Wind  
Wind Speed 8 mph (WSW)    
Max Wind Speed 12 mph    
Max Gust Speed -    
Visibility 6 miles    
Events Fog , Rain , Thunderstorm    
Averages and records for this station are not official NWS values.
T = Trace of Precipitation, MM = Missing Value Source: NWS Daily Summary

Daily Weather History Graph

Daily Weather History Graph

Search for Another Location

Airport or City:

Trip Planner

Search our weather history database for the weather conditions in past years. The results will help you decide how hot, cold, wet, or windy it might be!

Date:

Astronomy

Aug. 31, 2013 Rise Set
Actual Time 6:48 AM EDT 7:49 PM EDT
Civil Twilight 6:21 AM EDT 8:16 PM EDT
Nautical Twilight 5:49 AM EDT 8:48 PM EDT
Astronomical Twilight 5:16 AM EDT 9:21 PM EDT
Moon 2:18 AM EDT (8/31) 4:44 PM EDT (8/31)
Length of Visible Light 13h 55m
Length of Day
13h 01m
Waning Crescent, 21% of the Moon is Illuminated
Aug 31
Waning Crescent
Sep 5
New
Sep 12
First Quarter
Sep 19
Full
Sep 26
Last Quarter

Hourly Weather History & Observations

Time (EDT) Temp. Dew Point Humidity Pressure Visibility Wind Dir Wind Speed Gust Speed Precip Events Conditions
12:15 AM 66.2 °F 64.4 °F 94% 30.13 in 10.0 mi SW 8.1 mph - N/A   Scattered Clouds
12:35 AM 66.2 °F 64.4 °F 94% 30.13 in 10.0 mi SSW 6.9 mph - N/A   Scattered Clouds
12:55 AM 66.2 °F 64.4 °F 94% 30.13 in 10.0 mi SW 5.8 mph - N/A   Clear
1:15 AM 66.2 °F 64.4 °F 94% 30.12 in 10.0 mi SSW 5.8 mph - N/A   Clear
1:35 AM 64.4 °F 64.4 °F 100% 30.11 in 10.0 mi SW 6.9 mph - N/A   Clear
1:55 AM 66.2 °F 64.4 °F 94% 30.11 in 10.0 mi SW 6.9 mph - N/A   Scattered Clouds
2:15 AM 66.2 °F 64.4 °F 94% 30.10 in 10.0 mi SW 8.1 mph - N/A   Mostly Cloudy
2:35 AM 64.4 °F 64.4 °F 100% 30.10 in 7.0 mi SW 10.4 mph - N/A   Scattered Clouds
2:55 AM 64.4 °F 64.4 °F 100% 30.10 in 7.0 mi SW 10.4 mph - N/A   Clear
3:15 AM 64.4 °F 64.4 °F 100% 30.09 in 7.0 mi WSW 11.5 mph - N/A   Scattered Clouds
3:35 AM 64.4 °F 64.4 °F 100% 30.09 in 7.0 mi WSW 10.4 mph - N/A   Scattered Clouds
3:55 AM 64.4 °F 64.4 °F 100% 30.10 in 5.0 mi WSW 9.2 mph - N/A   Clear
4:15 AM 64.4 °F 64.4 °F 100% 30.09 in 4.0 mi WSW 9.2 mph - N/A   Mostly Cloudy
4:35 AM 64.4 °F 64.4 °F 100% 30.09 in 2.5 mi WSW 9.2 mph - N/A   Overcast
4:55 AM 64.4 °F 64.4 °F 100% 30.09 in 1.2 mi WSW 10.4 mph - N/A   Overcast
5:15 AM 64.4 °F 64.4 °F 100% 30.09 in 2.5 mi WSW 9.2 mph - N/A   Overcast
5:35 AM 64.4 °F 64.4 °F 100% 30.09 in 1.5 mi WSW 9.2 mph - N/A   Overcast
5:55 AM 64.4 °F 64.4 °F 100% 30.08 in 1.2 mi SW 8.1 mph - N/A   Overcast
6:15 AM 64.4 °F 64.4 °F 100% 30.08 in 1.8 mi WSW 9.2 mph - N/A   Overcast
6:35 AM 64.4 °F 64.4 °F 100% 30.08 in 0.5 mi WSW 9.2 mph - N/A Fog Fog
6:55 AM 64.4 °F 64.4 °F 100% 30.08 in 0.8 mi WSW 9.2 mph - N/A   Overcast
7:15 AM 64.4 °F 64.4 °F 100% 30.09 in 0.5 mi WSW 11.5 mph - N/A Fog Fog
7:35 AM 64.4 °F 64.4 °F 100% 30.10 in 0.2 mi West 6.9 mph - N/A Fog Fog
7:55 AM 64.4 °F 64.4 °F 100% 30.10 in 0.2 mi West 9.2 mph - N/A Fog Fog
8:15 AM 64.4 °F 64.4 °F 100% 30.10 in 0.2 mi West 10.4 mph - N/A Fog Fog
8:35 AM 64.4 °F 64.4 °F 100% 30.10 in 0.2 mi West 10.4 mph - N/A   Heavy Drizzle
8:55 AM 64.4 °F 64.4 °F 100% 30.11 in 0.2 mi West 9.2 mph - N/A   Drizzle
9:15 AM 64.4 °F 64.4 °F 100% 30.11 in 0.2 mi West 10.4 mph - N/A   Heavy Drizzle
9:35 AM 66.2 °F 66.2 °F 100% 30.11 in 0.2 mi West 9.2 mph - N/A   Light Drizzle
9:55 AM 66.2 °F 66.2 °F 100% 30.11 in 0.5 mi West 8.1 mph - N/A Fog Fog
10:15 AM 66.2 °F 66.2 °F 100% 30.11 in 3.0 mi West 8.1 mph - N/A   Overcast
10:35 AM 68.0 °F 68.0 °F 100% 30.12 in 1.5 mi West 10.4 mph - N/A   Overcast
10:55 AM 69.8 °F 68.0 °F 94% 30.11 in 5.0 mi West 8.1 mph - N/A   Overcast
11:15 AM 69.8 °F 68.0 °F 94% 30.11 in 7.0 mi West 8.1 mph - N/A   Scattered Clouds
11:35 AM 71.6 °F 68.0 °F 88% 30.11 in 7.0 mi West 8.1 mph - N/A   Scattered Clouds
11:55 AM 71.6 °F 68.0 °F 88% 30.10 in 7.0 mi WSW 6.9 mph - N/A   Mostly Cloudy
12:15 PM 71.6 °F 68.0 °F 88% 30.10 in 7.0 mi WSW 6.9 mph - N/A   Mostly Cloudy
12:35 PM 73.4 °F 68.0 °F 83% 30.10 in 10.0 mi West 8.1 mph - N/A   Scattered Clouds
12:55 PM 73.4 °F 68.0 °F 83% 30.10 in 10.0 mi West 6.9 mph - N/A   Mostly Cloudy
1:15 PM 73.4 °F 68.0 °F 83% 30.10 in 10.0 mi West 5.8 mph - N/A   Mostly Cloudy
1:35 PM 73.4 °F 66.2 °F 78% 30.10 in 7.0 mi West 4.6 mph - N/A   Scattered Clouds
1:55 PM 73.4 °F 66.2 °F 78% 30.10 in 5.0 mi WNW 4.6 mph - N/A   Haze
2:15 PM 73.4 °F 66.2 °F 78% 30.10 in 4.0 mi West 4.6 mph - N/A   Haze
2:35 PM 75.2 °F 66.2 °F 73% 30.10 in 3.0 mi WSW 5.8 mph - N/A   Haze
2:55 PM 75.2 °F 66.2 °F 73% 30.09 in 4.0 mi West 6.9 mph - N/A Thunderstorm Haze
3:15 PM 75.2 °F 64.4 °F 69% 30.08 in 5.0 mi WSW 4.6 mph - N/A   Haze
3:35 PM 75.2 °F 66.2 °F 73% 30.07 in 10.0 mi West 4.6 mph - N/A Thunderstorm Scattered Clouds
3:55 PM 73.4 °F 64.4 °F 73% 30.07 in 10.0 mi West 4.6 mph - N/A   Scattered Clouds
4:15 PM 73.4 °F 64.4 °F 73% 30.06 in 10.0 mi West 6.9 mph - N/A   Scattered Clouds
4:35 PM 73.4 °F 64.4 °F 73% 30.06 in 10.0 mi West 3.5 mph - N/A   Clear
4:55 PM 71.6 °F 64.4 °F 78% 30.06 in 10.0 mi Calm Calm - N/A Thunderstorm Thunderstorm
5:15 PM 71.6 °F 64.4 °F 78% 30.06 in 10.0 mi WNW 3.5 mph - N/A Thunderstorm Thunderstorm
5:35 PM 69.8 °F 66.2 °F 88% 30.07 in 10.0 mi SW 6.9 mph - N/A Rain , Thunderstorm Light Thunderstorms and Rain
5:55 PM 68.0 °F 68.0 °F 100% 30.05 in 5.0 mi West 3.5 mph - 0.01 in Rain Rain
6:35 PM 69.8 °F 66.2 °F 88% 30.06 in 10.0 mi South 3.5 mph - 0.05 in   Scattered Clouds
6:55 PM 69.8 °F 66.2 °F 88% 30.07 in 10.0 mi West 6.9 mph - N/A   Clear
7:15 PM 66.2 °F 66.2 °F 100% 30.08 in 10.0 mi WSW 9.2 mph - N/A   Scattered Clouds
7:35 PM 66.2 °F 66.2 °F 100% 30.10 in 10.0 mi WSW 9.2 mph - N/A   Mostly Cloudy
7:55 PM 66.2 °F 64.4 °F 94% 30.10 in 7.0 mi SSW 8.1 mph - N/A   Scattered Clouds
8:15 PM 64.4 °F 62.6 °F 94% 30.10 in 5.0 mi WSW 10.4 mph - N/A   Scattered Clouds
8:35 PM 66.2 °F 64.4 °F 94% 30.10 in 10.0 mi WSW 10.4 mph - N/A   Clear
8:55 PM 66.2 °F 62.6 °F 88% 30.10 in 10.0 mi WSW 9.2 mph - N/A   Mostly Cloudy
9:15 PM 64.4 °F 60.8 °F 88% 30.09 in 10.0 mi WSW 9.2 mph - N/A   Scattered Clouds
9:35 PM 64.4 °F 64.4 °F 100% 30.09 in 10.0 mi West 10.4 mph - N/A   Clear
9:55 PM 64.4 °F 64.4 °F 100% 30.08 in 5.0 mi WSW 9.2 mph - N/A   Clear
10:15 PM 64.4 °F 64.4 °F 100% 30.08 in 4.0 mi West 8.1 mph - N/A   Scattered Clouds
10:35 PM 64.4 °F 64.4 °F 100% 30.08 in 1.5 mi West 8.1 mph - N/A   Mostly Cloudy
10:55 PM 64.4 °F 64.4 °F 100% 30.08 in 2.5 mi West 9.2 mph - N/A   Scattered Clouds
11:15 PM 64.4 °F 64.4 °F 100% 30.08 in 7.0 mi West 11.5 mph - N/A   Scattered Clouds
11:35 PM 64.4 °F 64.4 °F 100% 30.07 in 7.0 mi West 10.4 mph - N/A   Clear
11:55 PM 64.4 °F 64.4 °F 100% 30.07 in 5.0 mi West 10.4 mph - N/A   Mostly Cloudy